MAS1604 WMKK-WMKP

Flight info

Callsign MAS1604
Flight time 0h 39m
Altitude 28000
Route ATIMU Y506 TEPUS DCT GORVU
Aircraft B738/M-SDE2E3FGHIRWXY/LB1

Departure

Time 2026-04-24 03:52
Airport Kuala Lumpur International Airport (WMKK)

Arrival

Time 2026-04-24 04:31
Airport Penang International Airport (WMKP)
Time Latitude Longitude Altitude Speed Heading
2026-04-24 03:23 2.75241 101.70882 75 ft 0 kts 146°
2026-04-24 03:42 2.75242 101.70882 75 ft 1 kts 146°
2026-04-24 03:43 2.75254 101.70874 75 ft 2 kts 146°
2026-04-24 03:43 2.75266 101.70866 75 ft 2 kts 139°
2026-04-24 03:43 2.75276 101.70853 75 ft 2 kts 117°
2026-04-24 03:43 2.75281 101.70840 75 ft 2 kts 98°
2026-04-24 03:44 2.75281 101.70824 75 ft 2 kts 80°
2026-04-24 03:44 2.75276 101.70810 75 ft 2 kts 61°
2026-04-24 03:44 2.75272 101.70804 75 ft 0 kts 53°
2026-04-24 03:46 2.75275 101.70807 75 ft 2 kts 53°
2026-04-24 03:46 2.75308 101.70853 75 ft 13 kts 55°
2026-04-24 03:46 2.75380 101.70959 75 ft 23 kts 57°
2026-04-24 03:47 2.75483 101.71115 75 ft 27 kts 55°
2026-04-24 03:47 2.75581 101.71262 75 ft 19 kts 53°
2026-04-24 03:47 2.75698 101.71283 75 ft 19 kts 329°
2026-04-24 03:47 2.75808 101.71205 75 ft 19 kts 324°
2026-04-24 03:48 2.75922 101.71125 75 ft 20 kts 325°
2026-04-24 03:48 2.76045 101.71056 75 ft 20 kts 340°
2026-04-24 03:48 2.76186 101.71027 75 ft 20 kts 352°
2026-04-24 03:48 2.76322 101.70978 75 ft 21 kts 327°
2026-04-24 03:49 2.76446 101.70895 75 ft 21 kts 326°
2026-04-24 03:49 2.76571 101.70809 75 ft 21 kts 324°
2026-04-24 03:49 2.76698 101.70722 75 ft 22 kts 326°
2026-04-24 03:49 2.76829 101.70637 75 ft 22 kts 327°
2026-04-24 03:50 2.76961 101.70550 75 ft 23 kts 325°
2026-04-24 03:50 2.77095 101.70458 75 ft 23 kts 326°
2026-04-24 03:50 2.77233 101.70367 75 ft 23 kts 326°
2026-04-24 03:50 2.77370 101.70274 75 ft 22 kts 325°
2026-04-24 03:51 2.77507 101.70263 75 ft 21 kts 49°
2026-04-24 03:51 2.77558 101.70376 75 ft 17 kts 112°
2026-04-24 03:51 2.77466 101.70452 75 ft 17 kts 146°
2026-04-24 03:51 2.77332 101.70541 75 ft 48 kts 145°
2026-04-24 03:52 2.76741 101.70949 75 ft 151 kts 145°
2026-04-24 03:52 2.75764 101.71603 854 ft 173 kts 147°
2026-04-24 03:52 2.74856 101.72125 2233 ft 153 kts 151°
2026-04-24 03:52 2.73863 101.72669 2933 ft 173 kts 144°
2026-04-24 03:53 2.72892 101.73411 3772 ft 185 kts 140°
2026-04-24 03:53 2.71868 101.74220 4657 ft 195 kts 135°
2026-04-24 03:53 2.71183 101.75388 5487 ft 206 kts 101°
2026-04-24 03:53 2.70956 101.76832 6316 ft 221 kts 103°
2026-04-24 03:54 2.70349 101.78288 7125 ft 241 kts 118°
2026-04-24 03:54 2.69484 101.79761 8050 ft 255 kts 120°
2026-04-24 03:54 2.68583 101.81346 8963 ft 269 kts 118°
2026-04-24 03:54 2.67693 101.83024 9842 ft 284 kts 117°
2026-04-24 03:55 2.66778 101.84823 10780 ft 296 kts 115°
2026-04-24 03:55 2.66106 101.86783 11658 ft 308 kts 100°
2026-04-24 03:55 2.66091 101.88938 12713 ft 314 kts 81°
2026-04-24 03:55 2.66750 101.91014 13804 ft 318 kts 66°
2026-04-24 03:56 2.67870 101.92897 14789 ft 324 kts 53°
2026-04-24 03:56 2.69526 101.94450 15731 ft 332 kts 39°
2026-04-24 03:56 2.71584 101.95539 16627 ft 341 kts 19°
2026-04-24 03:56 2.73961 101.95879 17485 ft 351 kts
2026-04-24 03:57 2.76403 101.95516 18347 ft 359 kts 346°
2026-04-24 03:57 2.78757 101.94591 19218 ft 365 kts 335°
2026-04-24 03:57 2.80906 101.93261 20034 ft 371 kts 323°
2026-04-24 03:57 2.82823 101.91492 20878 ft 376 kts 313°
2026-04-24 03:58 2.84564 101.89508 21668 ft 380 kts 313°
2026-04-24 03:58 2.86359 101.87553 22377 ft 386 kts 313°
2026-04-24 03:58 2.88173 101.85572 23089 ft 391 kts 313°
2026-04-24 03:58 2.90033 101.83527 23801 ft 396 kts 313°
2026-04-24 03:59 2.91895 101.81473 24457 ft 401 kts 313°
2026-04-24 03:59 2.93772 101.79401 25120 ft 406 kts 312°
2026-04-24 03:59 2.95678 101.77293 25783 ft 410 kts 312°
2026-04-24 03:59 2.97568 101.75203 26445 ft 413 kts 312°
2026-04-24 04:00 2.99530 101.73032 27081 ft 417 kts 312°
2026-04-24 04:00 3.01468 101.70890 27656 ft 421 kts 312°
2026-04-24 04:00 3.03466 101.68681 27865 ft 426 kts 312°
2026-04-24 04:00 3.05434 101.66503 27867 ft 424 kts 311°
2026-04-24 04:01 3.07390 101.64339 27865 ft 422 kts 312°
2026-04-24 04:01 3.09347 101.62175 27867 ft 423 kts 312°
2026-04-24 04:01 3.11144 101.60188 27871 ft 423 kts 312°
2026-04-24 04:01 3.13162 101.57958 27865 ft 422 kts 312°
2026-04-24 04:02 3.15138 101.55774 27868 ft 422 kts 312°
2026-04-24 04:02 3.17091 101.53615 27868 ft 422 kts 312°
2026-04-24 04:02 3.19064 101.51431 27864 ft 422 kts 312°
2026-04-24 04:02 3.21042 101.49239 27865 ft 424 kts 311°
2026-04-24 04:03 3.23031 101.47037 27865 ft 422 kts 312°
2026-04-24 04:03 3.25002 101.44853 27865 ft 422 kts 312°
2026-04-24 04:03 3.26966 101.42677 27861 ft 422 kts 312°
2026-04-24 04:03 3.28944 101.40485 27862 ft 423 kts 312°
2026-04-24 04:04 3.30919 101.38299 27859 ft 422 kts 312°
2026-04-24 04:04 3.32903 101.36104 27857 ft 422 kts 312°
2026-04-24 04:04 3.34895 101.33901 27856 ft 423 kts 312°
2026-04-24 04:04 3.36876 101.31710 27854 ft 423 kts 312°
2026-04-24 04:05 3.38859 101.29514 27853 ft 423 kts 311°
2026-04-24 04:05 3.40838 101.27323 27853 ft 424 kts 311°
2026-04-24 04:05 3.42818 101.25132 27851 ft 423 kts 311°
2026-04-24 04:05 3.44795 101.22942 27853 ft 423 kts 311°
2026-04-24 04:06 3.46763 101.20763 27849 ft 423 kts 311°
2026-04-24 04:06 3.48741 101.18572 27851 ft 422 kts 312°
2026-04-24 04:06 3.50721 101.16379 27853 ft 423 kts 312°
2026-04-24 04:06 3.52690 101.14198 27852 ft 423 kts 311°
2026-04-24 04:07 3.54665 101.12010 27855 ft 423 kts 311°
2026-04-24 04:07 3.56648 101.09813 27857 ft 422 kts 312°
2026-04-24 04:07 3.58626 101.07622 27858 ft 422 kts 311°
2026-04-24 04:07 3.60590 101.05445 27858 ft 424 kts 312°
2026-04-24 04:08 3.62582 101.03239 27857 ft 425 kts 312°
2026-04-24 04:08 3.64603 101.01035 27858 ft 426 kts 313°
2026-04-24 04:08 3.66720 100.98965 27857 ft 424 kts 319°
2026-04-24 04:08 3.69119 100.97248 27862 ft 424 kts 329°
2026-04-24 04:09 3.71725 100.95856 27864 ft 425 kts 334°
2026-04-24 04:09 3.74451 100.94598 27864 ft 424 kts 337°
2026-04-24 04:09 3.77144 100.93435 27861 ft 423 kts 338°
2026-04-24 04:09 3.79894 100.92269 27858 ft 423 kts 338°
2026-04-24 04:10 3.82606 100.91121 27854 ft 422 kts 338°
2026-04-24 04:10 3.85329 100.89958 27851 ft 422 kts 337°
2026-04-24 04:10 3.88030 100.88792 27849 ft 423 kts 337°
2026-04-24 04:11 3.93637 100.86343 27850 ft 452 kts 337°
2026-04-24 04:11 3.96573 100.85049 27714 ft 464 kts 336°
2026-04-24 04:11 3.99550 100.83732 27273 ft 461 kts 336°
2026-04-24 04:11 4.02450 100.82444 26675 ft 457 kts 336°
2026-04-24 04:12 4.05393 100.81136 25906 ft 456 kts 336°
2026-04-24 04:12 4.08256 100.79861 25302 ft 451 kts 336°
2026-04-24 04:12 4.11140 100.78576 24680 ft 447 kts 336°
2026-04-24 04:12 4.13997 100.77302 24033 ft 443 kts 336°
2026-04-24 04:13 4.16772 100.76064 23396 ft 439 kts 336°
2026-04-24 04:13 4.19596 100.74812 22726 ft 435 kts 337°
2026-04-24 04:13 4.22362 100.73601 22073 ft 432 kts 337°
2026-04-24 04:13 4.25112 100.72403 21439 ft 428 kts 337°
2026-04-24 04:14 4.27841 100.71217 20798 ft 424 kts 337°
2026-04-24 04:14 4.30527 100.70051 20162 ft 421 kts 337°
2026-04-24 04:14 4.33217 100.68882 19526 ft 417 kts 337°
2026-04-24 04:14 4.35874 100.67726 18883 ft 414 kts 338°
2026-04-24 04:15 4.38523 100.66573 18234 ft 410 kts 338°
2026-04-24 04:15 4.41132 100.65435 17609 ft 407 kts 338°
2026-04-24 04:15 4.43747 100.64294 16989 ft 403 kts 338°
2026-04-24 04:15 4.46296 100.63182 16374 ft 400 kts 338°
2026-04-24 04:16 4.48861 100.62064 15733 ft 396 kts 338°
2026-04-24 04:16 4.51368 100.60970 15111 ft 392 kts 338°
2026-04-24 04:16 4.53852 100.59886 14494 ft 388 kts 338°
2026-04-24 04:16 4.56317 100.58810 13869 ft 383 kts 338°
2026-04-24 04:17 4.58744 100.57752 13262 ft 378 kts 338°
2026-04-24 04:17 4.61158 100.56697 12669 ft 374 kts 338°
2026-04-24 04:17 4.63516 100.55669 12097 ft 368 kts 338°
2026-04-24 04:17 4.65865 100.54643 11830 ft 356 kts 338°
2026-04-24 04:18 4.68089 100.53672 11455 ft 347 kts 338°
2026-04-24 04:18 4.70300 100.52706 10960 ft 343 kts 338°
2026-04-24 04:18 4.72458 100.51765 10601 ft 334 kts 338°
2026-04-24 04:18 4.74564 100.50845 10420 ft 320 kts 338°
2026-04-24 04:19 4.76572 100.49966 10310 ft 306 kts 338°
2026-04-24 04:19 4.78503 100.49122 10178 ft 293 kts 338°
2026-04-24 04:19 4.80337 100.48321 9937 ft 286 kts 338°
2026-04-24 04:19 4.82134 100.47422 9569 ft 285 kts 329°
2026-04-24 04:20 4.83628 100.46116 9210 ft 284 kts 311°
2026-04-24 04:20 4.84658 100.44774 8908 ft 283 kts 306°
2026-04-24 04:20 4.85775 100.43169 8563 ft 281 kts 306°
2026-04-24 04:20 4.86904 100.41571 8219 ft 279 kts 307°
2026-04-24 04:21 4.88056 100.40004 7869 ft 278 kts 308°
2026-04-24 04:21 4.89231 100.38448 7526 ft 277 kts 308°
2026-04-24 04:21 4.90391 100.36928 7184 ft 277 kts 308°
2026-04-24 04:21 4.91557 100.35402 6957 ft 273 kts 308°
2026-04-24 04:22 4.92723 100.33874 6967 ft 277 kts 308°
2026-04-24 04:22 4.93891 100.32343 6885 ft 274 kts 308°
2026-04-24 04:22 4.95051 100.30817 6618 ft 270 kts 308°
2026-04-24 04:22 4.96188 100.29323 6285 ft 269 kts 308°
2026-04-24 04:23 4.97322 100.27833 5952 ft 268 kts 308°
2026-04-24 04:23 4.98454 100.26345 5619 ft 267 kts 308°
2026-04-24 04:23 4.99586 100.24860 5284 ft 266 kts 308°
2026-04-24 04:23 5.00717 100.23373 4940 ft 266 kts 308°
2026-04-24 04:24 5.01837 100.21901 4607 ft 264 kts 308°
2026-04-24 04:24 5.02944 100.20447 4276 ft 261 kts 308°
2026-04-24 04:24 5.04109 100.19106 4148 ft 242 kts 319°
2026-04-24 04:24 5.05446 100.18198 4120 ft 226 kts 334°
2026-04-24 04:25 5.06919 100.17506 4058 ft 239 kts 336°
2026-04-24 04:25 5.08411 100.16794 3948 ft 232 kts 334°
2026-04-24 04:25 5.09834 100.16067 3742 ft 228 kts 333°
2026-04-24 04:25 5.11256 100.15320 3458 ft 227 kts 333°
2026-04-24 04:26 5.12661 100.14607 3231 ft 223 kts 337°
2026-04-24 04:26 5.14140 100.14244 3008 ft 218 kts
2026-04-24 04:26 5.15514 100.14732 2877 ft 205 kts 37°
2026-04-24 04:26 5.16544 100.15685 2727 ft 194 kts 44°
2026-04-24 04:27 5.17472 100.16623 2561 ft 186 kts 44°
2026-04-24 04:27 5.18397 100.17509 2391 ft 178 kts 42°
2026-04-24 04:27 5.19293 100.18314 2237 ft 170 kts 41°
2026-04-24 04:27 5.20157 100.19087 2120 ft 160 kts 41°
2026-04-24 04:28 5.20990 100.19840 1958 ft 159 kts 40°
2026-04-24 04:28 5.21816 100.20581 1755 ft 157 kts 40°
2026-04-24 04:28 5.22632 100.21315 1574 ft 152 kts 41°
2026-04-24 04:28 5.23384 100.21994 1390 ft 144 kts 40°
2026-04-24 04:29 5.24112 100.22649 1144 ft 137 kts 41°
2026-04-24 04:29 5.24813 100.23282 1006 ft 132 kts 42°
2026-04-24 04:29 5.25509 100.23904 843 ft 133 kts 41°
2026-04-24 04:29 5.26198 100.24517 642 ft 132 kts 41°
2026-04-24 04:30 5.26909 100.25140 384 ft 134 kts 37°
2026-04-24 04:30 5.27625 100.25716 232 ft 129 kts 40°
2026-04-24 04:30 5.28260 100.26327 47 ft 123 kts 46°
2026-04-24 04:30 5.28820 100.26910 22 ft 104 kts 43°
2026-04-24 04:31 5.29252 100.27288 21 ft 52 kts 38°
2026-04-24 04:31 5.29465 100.27457 19 ft 29 kts 41°
2026-04-24 04:31 5.29646 100.27616 20 ft 46 kts 43°
2026-04-24 04:31 5.29936 100.27879 23 ft 57 kts 42°
2026-04-24 04:32 5.30106 100.28020 22 ft 0 kts 37°
2026-04-24 04:32 5.30115 100.28024 22 ft 3 kts 14°
2026-04-24 04:32 5.30140 100.28020 22 ft 3 kts 343°
2026-04-24 04:32 5.30157 100.28014 22 ft 1 kts 329°
2026-04-24 04:33 5.30159 100.28012 22 ft 0 kts 326°
2026-04-24 04:33 5.30213 100.27959 23 ft 15 kts 301°
2026-04-24 04:33 5.30190 100.27867 25 ft 14 kts 227°
2026-04-24 04:33 5.30121 100.27798 25 ft 13 kts 225°
2026-04-24 04:34 5.30055 100.27733 25 ft 13 kts 223°
2026-04-24 04:34 5.29987 100.27672 25 ft 13 kts 221°
2026-04-24 04:34 5.29876 100.27572 23 ft 31 kts 222°
2026-04-24 04:34 5.29670 100.27383 21 ft 43 kts 219°
2026-04-24 04:35 5.29443 100.27184 19 ft 42 kts 222°
2026-04-24 04:35 5.29343 100.27075 20 ft 16 kts 252°
2026-04-24 04:35 5.29375 100.26982 22 ft 12 kts 292°
2026-04-24 04:35 5.29368 100.26907 23 ft 9 kts 255°
2026-04-24 04:36 5.29385 100.26851 24 ft 8 kts 310°
2026-04-24 04:36 5.29408 100.26824 26 ft 0 kts 310°